Miscellaneous Local Product
Issued by NWS Hastings, NE

Home | Current Version | Previous Version | Graphics & Text | Print | Product List | Glossary On
Versions: 1 2 3 4 5 6 7 8 9 10 11 12 13 14 15 16 17 18 19 20 21 22 23 24 25 26 27 28 29 30 31 32 33 34 35 36 37 38 39 40 41 42 43 44 45 46 47 48 49 50
884
AXUS43 KGID 010202
MISGRI

GID CWA HOURLY WEATHER ROUNDUP
NATIONAL WEATHER SERVICE HASTINGS NE
900 PM CDT SAT APR 30 2016

NOTE: "FAIR" INDICATES FEW OR NO CLOUDS BELOW 12,000 FEET WITH NO
SIGNIFICANT WEATHER AND/OR OBSTRUCTIONS TO VISIBILITY.

...SOUTH CENTRAL NEBRASKA...

CITY           SKY/WX    TMP DP  RH WIND       PRES   REMARKS
GRAND ISLAND   LGT RAIN  46  45  96 N12       29.84R FOG
HASTINGS       CLOUDY    45  43  93 NW9       29.84R
KEARNEY        CLOUDY    43  39  87 NW10      29.87R
ORD            LGT RAIN  44  42  93 NE15      29.88R
YORK           LGT RAIN  48  46  93 NE12      29.82R
AURORA         DRIZZLE   47  47  99 N8        29.83R
LEXINGTON      CLOUDY    38  36  90 N14       29.90R WCI  30
HOLDREGE       CLOUDY    41  38  91 NW9       29.87R
HEBRON         CLOUDY    50  45  83 W3        29.83R

...NEBRASKA PANHANDLE...

CITY           SKY/WX    TMP DP  RH WIND       PRES   REMARKS
CHADRON        LGT RAIN  43  34  70 NE24G30   30.13R
ALLIANCE       LGT RAIN  34  33  96 N18       30.07R WCI  23
SCOTTSBLUFF    LGT RAIN  37  32  82 N9        30.13R WCI  30
SIDNEY         LGT SNOW  33  32  96 N24       30.05R FOG     WCI  20

...WESTERN AND NORTH CENTRAL NEBRASKA...

CITY           SKY/WX    TMP DP  RH WIND       PRES   REMARKS
VALENTINE      LGT RAIN  39  36  89 NE18G28   30.05R WCI  30
AINSWORTH      LGT RAIN  39  38  96 NE24G30   30.01R WCI  28
ONEILL         DRIZZLE   42  40  94 NE18G25   29.96R
BROKEN BOW     LGT RAIN  41  39  93 N12       29.89R FOG
IMPERIAL       LGT RAIN  35  33  92 N17       29.98R FOG     WCI  25
NORTH PLATTE   LGT SNOW  34  32  92 N20       29.94R FOG     WCI  23
MCCOOK         CLOUDY    39  34  82 N15       29.93R WCI  31

...EASTERN NEBRASKA...

CITY           SKY/WX    TMP DP  RH WIND       PRES   REMARKS
NORFOLK        LGT RAIN  44  42  93 NE13      29.88R FOG
SO SIOUX CITY  CLOUDY    46  42  86 NE22G30   29.91R
TEKAMAH        CLOUDY    48  46  93 NE14      29.86R
COLUMBUS       CLOUDY    46  39  76 NE15G21   29.85R
ALBION         DRIZZLE   44  42  93 NE16G25   29.88R
OMAHA EPPLEY   CLOUDY    50  47  89 E17G24    29.83R
OFFUTT AFB     RAIN      50  50  99 NE9       29.81R FOG
MILLARD        DRIZZLE   50  48  92 E5        29.83R
LINCOLN        LGT RAIN  51  49  92 NE8       29.82R
NEBRASKA CITY  CLOUDY    52  52 100 CALM      29.81R
BEATRICE       CLOUDY    52  48  86 SW3       29.81R
FALLS CITY     CLOUDY    56  49  77 W6        29.80R

...NORTHERN KANSAS...

CITY           SKY/WX    TMP DP  RH WIND       PRES   REMARKS
GOODLAND       CLOUDY    35  33  92 N23       29.95R WCI  23
HILL CITY      CLOUDY    43  38  82 NW9       29.91R
NORTON         CLOUDY    39  34  81 NW13      29.90R WCI  32
PHILLIPSBURG   CLOUDY    45  43  93 NW10      29.89R
SMITH CENTER   CLOUDY    45  43  93 W8        29.87R
BELOIT         CLOUDY    46  39  76 W8        29.86R
HAYS           CLOUDY    46  34  61 NW10      29.89R
RUSSELL        CLOUDY    47  40  76 NW13      29.86R
CONCORDIA      CLOUDY    50  44  80 W8        29.84R
SALINA         CLEAR     50  43  77 W7        29.86R
TOPEKA         CLEAR     58  46  64 W6        29.82R



USA.gov is the U.S. government's official web portal to all federal, state and local government web resources and services.